Des Moines, IA

10:04 AM CDT on May 28, 2017 (GMT -0500)
Des Moines International

Weather History for KDSM - November, 2014

Change the Weather History Date:

Thursday, November 13, 2014

  Actual Average Record
Temperature  
Mean Temperature 22 °F 41 °F  
Max Temperature 27 °F 49 °F 81 °F (1999)
Min Temperature 17 °F 32 °F -1 °F (1940)
Degree Days  
Heating Degree Days 43 24  
Month to date heating degree days 302 276  
Since 1 July heating degree days 684 760  
Cooling Degree Days 0 0  
Month to date cooling degree days 0 0  
Year to date cooling degree days 1075 1066  
Moisture  
Dew Point 13 °F    
Average Humidity 66    
Maximum Humidity 77    
Minimum Humidity 55    
Precipitation  
Precipitation T in 0.08 in 0.90 in (1972)
Month to date precipitation 0.11 1.06  
Year to date precipitation 40.49 33.47  
Snow  
Snow T in 0.10 in 7.50 in (1972)
Month to date snowfall 0.3 0.5  
Since 1 July snowfall 0.3 0.9  
Since 1 September snowfall 0.3 0.9  
Snow Depth 0.00 in    
Sea Level Pressure  
Sea Level Pressure 30.48 in    
Wind  
Wind Speed 15 mph (NW)    
Max Wind Speed 23 mph    
Max Gust Speed 29 mph    
Visibility 9 miles    
Events Snow    
T = Trace of Precipitation, MM = Missing Value Source: NWS Daily Summary

Daily Weather History Graph

Daily Weather History Graph

Search for Another Location

Airport or City:

Trip Planner

Search our weather history database for the weather conditions in past years. The results will help you decide how hot, cold, wet, or windy it might be!

Date:

Astronomy

Nov. 13, 2014 Rise Set
Actual Time 7:01 AM CST 4:56 PM CST
Civil Twilight 6:31 AM CST 5:26 PM CST
Nautical Twilight 5:57 AM CST 5:59 PM CST
Astronomical Twilight 5:25 AM CST 6:32 PM CST
Moon 11:14 PM CST (11/13) 12:20 PM CST (11/13)
Length of Visible Light 10h 54m
Length of Day
9h 55m
Waning Gibbous, 58% of the Moon is Illuminated
Nov 13
Waning Gibbous
Nov 14
Last Quarter
Nov 22
New
Nov 29
First Quarter
Dec 6
Full

Hourly Weather History & Observations

Time (CST) Temp. Windchill Dew Point Humidity Pressure Visibility Wind Dir Wind Speed Gust Speed Precip Events Conditions
12:54 AM 23.0 °F 11.7 °F 15.1 °F 72% 30.47 in 9.0 mi WNW 11.5 mph - 0.00 in Snow Light Snow
1:54 AM 23.0 °F 10.1 °F 15.1 °F 72% 30.47 in 9.0 mi NW 15.0 mph - 0.00 in Snow Light Snow
2:54 AM 24.1 °F 12.0 °F 15.1 °F 69% 30.48 in 9.0 mi NW 13.8 mph - 0.00 in Snow Light Snow
3:54 AM 24.1 °F 11.0 °F 15.1 °F 69% 30.48 in 9.0 mi NW 16.1 mph 25.3 mph 0.00 in Snow Light Snow
4:54 AM 23.0 °F 9.2 °F 14.0 °F 68% 30.44 in 10.0 mi NW 17.3 mph - N/A   Overcast
5:54 AM 21.9 °F 8.2 °F 15.1 °F 75% 30.49 in 10.0 mi NW 16.1 mph - 0.00 in Snow Light Snow
6:40 AM 21.9 °F 6.9 °F 14.0 °F 72% 30.44 in 9.0 mi NW 19.6 mph 27.6 mph 0.00 in Snow Light Snow
6:54 AM 21.9 °F 5.8 °F 12.0 °F 66% 30.49 in 9.0 mi NW 23.0 mph 28.8 mph 0.00 in Snow Light Snow
7:54 AM 21.9 °F 7.3 °F 12.0 °F 66% 30.51 in 9.0 mi NNW 18.4 mph 26.5 mph 0.00 in Snow Light Snow
8:54 AM 23.0 °F 9.2 °F 12.0 °F 63% 30.51 in 9.0 mi NW 17.3 mph 25.3 mph 0.00 in Snow Light Snow
9:54 AM 23.0 °F 8.7 °F 12.9 °F 65% 30.53 in 9.0 mi NNW 18.4 mph - 0.00 in Snow Light Snow
10:54 AM 24.1 °F 11.0 °F 12.9 °F 62% 30.52 in 9.0 mi NW 16.1 mph - 0.00 in Snow Light Snow
11:54 AM 25.0 °F 12.6 °F 15.1 °F 66% 30.51 in 3.0 mi NW 15.0 mph - 0.00 in Snow Light Snow
12:54 PM 26.1 °F 13.1 °F 12.9 °F 58% 30.49 in 9.0 mi NW 17.3 mph - 0.00 in Snow Light Snow
1:20 PM 26.1 °F 13.6 °F 12.0 °F 55% 30.44 in 9.0 mi NW 16.1 mph - 0.00 in Snow Light Snow
1:54 PM 27.0 °F 13.5 °F 10.9 °F 51% 30.48 in 10.0 mi NW 19.6 mph - 0.00 in   Overcast
2:54 PM 27.0 °F 14.3 °F 10.9 °F 51% 30.48 in 9.0 mi NW 17.3 mph - 0.00 in Snow Light Snow
3:54 PM 26.1 °F 14.0 °F 12.9 °F 58% 30.48 in 9.0 mi WNW 15.0 mph - 0.00 in Snow Light Snow
4:54 PM 26.1 °F 13.6 °F 12.9 °F 58% 30.48 in 9.0 mi NW 16.1 mph - 0.00 in   Mostly Cloudy
5:54 PM 25.0 °F 15.5 °F 12.9 °F 60% 30.48 in 10.0 mi NW 9.2 mph - N/A   Mostly Cloudy
6:54 PM 24.1 °F 12.5 °F 12.0 °F 60% 30.49 in 10.0 mi NW 12.7 mph - N/A   Mostly Cloudy
7:54 PM 21.9 °F 12.5 °F 12.0 °F 66% 30.48 in 10.0 mi NW 8.1 mph - N/A   Scattered Clouds
8:54 PM 21.9 °F 10.4 °F 12.0 °F 66% 30.48 in 10.0 mi WNW 11.5 mph - 0.00 in Snow Light Snow
9:54 PM 19.9 °F 7.9 °F 10.9 °F 68% 30.48 in 10.0 mi NW 11.5 mph - 0.00 in   Partly Cloudy
10:54 PM 19.0 °F 9.0 °F 10.9 °F 71% 30.49 in 10.0 mi NW 8.1 mph - N/A   Clear
11:54 PM 18.0 °F 6.9 °F 10.0 °F 71% 30.48 in 10.0 mi NNW 9.2 mph - N/A   Partly Cloudy